Weather History for Eau Claire, WI

Change the Weather History Date:

Monday, November 22, 2010

  Actual Average Record
Temperature  
Mean Temperature 28 °F 29 °F  
Max Temperature 34 °F 37 °F 62 °F (2012)
Min Temperature 21 °F 21 °F -6 °F (1921)
Degree Days  
Heating Degree Days 37 36  
Month to date heating degree days 595 656  
Since 1 July heating degree days 1284 1440  
Cooling Degree Days 0 0  
Month to date cooling degree days 0 0  
Year to date cooling degree days 685 579  
Moisture  
Dew Point 28 °F    
Average Humidity 89    
Maximum Humidity 100    
Minimum Humidity 77    
Precipitation  
Precipitation 0.01 in 0.06 in 0.90 in (1963)
Month to date precipitation 1.97 1.39  
Year to date precipitation 34.26 29.53  
Snow  
Snow T in 0.30 in 4.00 in (1996)
Month to date snowfall 1.6 3.7  
Since 1 July snowfall 1.6 4.1  
Since 1 September snowfall 1.6 4.1  
Snow Depth 0.00 in    
Sea Level Pressure  
Sea Level Pressure 29.74 in    
Wind  
Wind Speed 8 mph (NW)    
Max Wind Speed 22 mph    
Max Gust Speed 30 mph    
Visibility 7 miles    
Events Rain , Snow    
T = Trace of Precipitation, MM = Missing Value Source: NWS Daily Summary

Daily Weather History Graph

Daily Weather History Graph

Search for Another Location

Airport:

Trip Planner

Search our weather history database for the weather conditions in past years. The results will help you decide how hot, cold, wet, or windy it might be!

Date:

Astronomy

Nov. 22, 2010 Rise Set
Actual Time 7:12 AM CST 4:31 PM CST
Civil Twilight 6:40 AM CST 5:03 PM CST
Nautical Twilight 6:04 AM CST 5:39 PM CST
Astronomical Twilight 5:29 AM CST 6:14 PM CST
Moon 5:08 PM CST (11/22) 8:19 AM CST (11/22)
Length of Visible Light 10h 23m
Length of Day
9h 18m
Full, 99% of the Moon is Illuminated
Nov 22
Full
Nov 28
Last Quarter
Dec 5
New
Dec 13
First Quarter
Dec 21
Full

Hourly Weather History & Observations

Time (CST) Temp. Windchill Dew Point Humidity Pressure Visibility Wind Dir Wind Speed Gust Speed Precip Events Conditions
12:56 AM 33.1 °F 27.7 °F 30.0 °F 89% 29.86 in 10.0 mi NNW 5.8 mph - N/A   Overcast
1:26 AM 32.0 °F 27.5 °F 30.2 °F 93% 29.83 in 10.0 mi NW 4.6 mph - N/A   Overcast
1:56 AM 32.0 °F - 30.2 °F 93% 29.82 in 10.0 mi Calm Calm - N/A   Overcast
2:56 AM 32.0 °F - 28.9 °F 88% 29.86 in 10.0 mi Calm Calm - N/A   Overcast
3:56 AM 32.0 °F 28.7 °F 28.0 °F 85% 29.84 in 10.0 mi NE 3.5 mph - N/A   Overcast
4:42 AM 32.0 °F 28.7 °F 28.4 °F 87% 29.80 in 10.0 mi NE 3.5 mph - N/A   Overcast
4:56 AM 32.0 °F 27.5 °F 28.9 °F 88% 29.83 in 10.0 mi ENE 4.6 mph - N/A   Overcast
5:56 AM 32.0 °F 28.7 °F 28.9 °F 88% 29.83 in 10.0 mi NE 3.5 mph - N/A   Overcast
6:56 AM 30.9 °F 25.2 °F 28.9 °F 92% 29.79 in 10.0 mi NE 5.8 mph - N/A   Overcast
7:56 AM 32.0 °F 26.4 °F 28.9 °F 88% 29.81 in 10.0 mi NE 5.8 mph - N/A   Overcast
8:56 AM 32.0 °F 26.4 °F 30.0 °F 92% 29.79 in 9.0 mi NNE 5.8 mph - N/A   Overcast
9:56 AM 32.0 °F 25.6 °F 30.0 °F 92% 29.77 in 10.0 mi NE 6.9 mph - N/A   Overcast
10:56 AM 33.1 °F 26.9 °F 30.9 °F 92% 29.71 in 8.0 mi NE 6.9 mph - 0.00 in   Overcast
11:52 AM 33.8 °F - 32.0 °F 93% 29.67 in 1.8 mi Calm Calm - 0.01 in Rain Light Rain
11:53 AM 34.0 °F - 32.0 °F 92% 29.70 in 1.8 mi Calm Calm - 0.01 in Rain Light Rain
12:18 PM 33.8 °F 29.6 °F 33.8 °F 100% 29.64 in 2.5 mi North 4.6 mph - 0.00 in Rain Light Rain
12:41 PM 33.8 °F 29.6 °F 32.0 °F 93% 29.64 in 1.8 mi North 4.6 mph - 0.00 in Rain Light Rain
12:56 PM 34.0 °F 29.8 °F 33.1 °F 96% 29.67 in 2.0 mi NNW 4.6 mph - 0.00 in Rain Light Rain
1:12 PM 33.8 °F 30.8 °F 33.8 °F 100% 29.63 in 2.5 mi North 3.5 mph - 0.00 in   Overcast
1:19 PM 33.8 °F 30.8 °F 33.8 °F 100% 29.63 in 2.0 mi North 3.5 mph - 0.00 in Rain Light Rain
1:37 PM 33.8 °F 29.6 °F 33.8 °F 100% 29.62 in 3.0 mi North 4.6 mph - 0.00 in   Overcast
1:56 PM 34.0 °F 29.8 °F 33.1 °F 96% 29.64 in 4.0 mi North 4.6 mph - 0.00 in   Overcast
2:34 PM 33.8 °F 27.7 °F 33.8 °F 100% 29.64 in 4.0 mi NW 6.9 mph - N/A   Overcast
2:53 PM 33.8 °F 28.6 °F 33.8 °F 100% 29.63 in 2.0 mi NW 5.8 mph - N/A   Overcast
2:56 PM 34.0 °F 27.2 °F 33.1 °F 96% 29.66 in 2.0 mi NW 8.1 mph - N/A   Overcast
3:17 PM 33.8 °F 27.0 °F 32.0 °F 93% 29.63 in 3.0 mi NW 8.1 mph - N/A   Overcast
3:56 PM 33.1 °F 26.9 °F 33.1 °F 100% 29.69 in 4.0 mi WNW 6.9 mph - N/A   Overcast
4:11 PM 32.0 °F 25.6 °F 32.0 °F 100% 29.67 in 1.8 mi WNW 6.9 mph - 0.00 in Snow Light Snow
4:30 PM 32.0 °F 23.6 °F 30.2 °F 93% 29.67 in 3.0 mi WNW 10.4 mph - 0.00 in Snow Light Snow
4:56 PM 32.0 °F 22.5 °F 30.0 °F 92% 29.71 in 10.0 mi WNW 12.7 mph - 0.00 in   Overcast
5:43 PM 30.2 °F 20.8 °F 26.6 °F 86% 29.70 in 10.0 mi West 11.5 mph - N/A   Overcast
5:56 PM 30.0 °F 21.7 °F 27.0 °F 88% 29.74 in 10.0 mi West 9.2 mph - N/A   Overcast
6:15 PM 28.4 °F 18.5 °F 26.6 °F 93% 29.72 in 10.0 mi West 11.5 mph - N/A   Overcast
6:26 PM 28.4 °F 19.7 °F 26.6 °F 93% 29.72 in 10.0 mi West 9.2 mph - N/A   Overcast
6:36 PM 28.4 °F 18.5 °F 26.6 °F 93% 29.72 in 10.0 mi WSW 11.5 mph - N/A   Overcast
6:52 PM 28.4 °F 17.0 °F 24.8 °F 86% 29.73 in 10.0 mi West 15.0 mph 19.6 mph N/A   Overcast
6:56 PM 28.0 °F 16.1 °F 24.1 °F 85% 29.77 in 10.0 mi West 16.1 mph 20.7 mph N/A   Overcast
7:38 PM 26.6 °F 15.7 °F 23.0 °F 86% 29.76 in 10.0 mi West 12.7 mph - N/A   Overcast
7:56 PM 26.1 °F 13.6 °F 23.0 °F 88% 29.81 in 10.0 mi West 16.1 mph - N/A   Overcast
8:56 PM 25.0 °F 13.6 °F 21.0 °F 85% 29.84 in 10.0 mi West 12.7 mph 21.9 mph N/A   Overcast
9:12 PM 24.8 °F 13.4 °F 21.2 °F 86% 29.81 in 10.0 mi West 12.7 mph 20.7 mph N/A   Overcast
9:56 PM 24.1 °F 11.5 °F 19.0 °F 81% 29.86 in 10.0 mi West 15.0 mph 24.2 mph N/A   Overcast
10:12 PM 23.0 °F 8.7 °F 17.6 °F 80% 29.84 in 10.0 mi West 18.4 mph 27.6 mph N/A   Overcast
10:56 PM 21.9 °F 8.2 °F 16.0 °F 78% 29.88 in 10.0 mi West 16.1 mph 21.9 mph N/A   Overcast
11:56 PM 21.0 °F 8.1 °F 15.1 °F 78% 29.91 in 8.0 mi West 13.8 mph 24.2 mph 0.00 in Snow Light Snow